Location: Briis
(48.6240°N, 2.1211°E)
Time: 07:34:12
(UTC+00:00)

ATLAS 5 CENTAUR R/B - Pass Details

Date: 25 September 2020
Orbit: 527 x 1131 km, 63.4° (Epoch: 14 October)

Event Time Altitude Azimuth Distance (km) Brightness Sun altitude
Exits shadow 01:57:34 20° 0° (N) 1,561 4.0 -34.3°
Drops below altitude 10° 02:00:06 10° 28° (NNE) 2,207 5.1 -34.0°
Sets 02:03:11 0° 43° (NE) 3,254 6.3 -33.7°
